Weather History for CXIB - September, 2012

Change the Weather History Date:

Sunday, September 30, 2012

  Actual Average Record
Temperature  
Mean Temperature 58 °F -  
Max Temperature 63 °F - - ()
Min Temperature 55 °F - - ()
Degree Days  
Heating Degree Days 6    
Growing Degree Days 8 (Base 50)    
Moisture  
Dew Point 59 °F    
Average Humidity 96    
Maximum Humidity 98    
Minimum Humidity 92    
Precipitation  
Precipitation 0.24 in - - ()
Sea Level Pressure  
Sea Level Pressure 30.14 in    
Wind  
Wind Speed 6 mph ()    
Max Wind Speed 10 mph    
Max Gust Speed 18 mph    
T = Trace of Precipitation, MM = Missing Value Source: Averaged Metar Reports

Daily Weather History Graph

Daily Weather History Graph

Search for Another Location

Airport or City:

Trip Planner

Search our weather history database for the weather conditions in past years. The results will help you decide how hot, cold, wet, or windy it might be!

Date:

Astronomy

Sep. 30, 2012 Rise Set
Actual Time 6:59 AM ADT 6:42 PM ADT
Civil Twilight 6:29 AM ADT 7:12 PM ADT
Nautical Twilight 5:54 AM ADT 7:47 PM ADT
Astronomical Twilight 5:18 AM ADT 8:23 PM ADT
Moon 6:37 PM ADT (9/30) 7:30 AM ADT (9/30)
Length of Visible Light 12h 43m
Length of Day
11h 43m
Full, 100% of the Moon is Illuminated
Sep 30
Full
Oct 8
Last Quarter
Oct 15
New
Oct 22
First Quarter
Oct 29
Full

Hourly Weather History & Observations

Time (ADT) Temp. Dew Point Humidity Pressure Visibility Wind Dir Wind Speed Gust Speed Precip Events Conditions
12:00 AM 57.0 °F 55.0 °F 93% 30.25 in - South 6.9 mph - N/A   Unknown
1:00 AM 57.2 °F 55.2 °F 93% 30.24 in - South 6.9 mph - N/A   Unknown
2:00 AM 57.7 °F 55.6 °F 92% 30.23 in - SSE 8.1 mph - 0.03 in   Unknown
3:00 AM 57 °F 56 °F 94% 30.22 in - South 6.9 mph - -  
3:00 AM 57.2 °F 55.8 °F 95% 30.22 in - South 6.9 mph - 0.03 in   Unknown
4:00 AM 57.6 °F 56.7 °F 97% 30.21 in - SE 6.9 mph - 0.08 in   Unknown
5:00 AM 57.4 °F 56.7 °F 97% 30.20 in - SSE 10.4 mph - 0.03 in   Unknown
6:00 AM 57.4 °F 56.7 °F 97% 30.20 in - ESE 5.8 mph - 0.05 in   Unknown
7:00 AM 57.0 °F 56.3 °F 97% 30.20 in - SE 6.9 mph - 0.05 in   Unknown
8:00 AM 56.8 °F 56.3 °F 98% 30.20 in - SE 5.8 mph - 0.04 in   Unknown
9:00 AM 58 °F 58 °F 98% 30.18 in - SE 4.6 mph - -  
9:00 AM 58.1 °F 57.6 °F 98% 30.18 in - SE 4.6 mph - N/A   Unknown
10:00 AM 59.4 °F 58.8 °F 98% 30.17 in - SE 6.9 mph - 0.04 in   Unknown
11:00 AM 60.1 °F 59.5 °F 98% 30.17 in - SSE 3.5 mph - 0.05 in   Unknown
12:00 PM 60.1 °F 59.4 °F 97% 30.16 in - SSE 10.4 mph 18.4 mph 0.04 in   Unknown
1:00 PM 60.6 °F 59.9 °F 97% 30.15 in - South 5.8 mph - 0.05 in   Unknown
2:00 PM 61.0 °F 60.1 °F 97% 30.12 in - South 3.5 mph - N/A   Unknown
3:00 PM 62 °F 61 °F 94% 30.11 in - South 2.3 mph - -  
3:00 PM 61.5 °F 60.6 °F 97% 30.11 in - South 2.3 mph - N/A   Unknown
4:00 PM 61.5 °F 60.6 °F 97% 30.09 in - SSE 6.9 mph - 0.04 in   Unknown
5:00 PM 61.5 °F 60.6 °F 97% 30.08 in - SSE 10.4 mph - N/A   Unknown
6:00 PM 61.7 °F 60.6 °F 96% 30.07 in - SSE 9.2 mph - N/A   Unknown
7:00 PM 61.7 °F 60.8 °F 97% 30.05 in - South 6.9 mph - N/A   Unknown
8:00 PM 61.9 °F 60.8 °F 96% 30.04 in - South 6.9 mph - N/A   Unknown
9:00 PM 62 °F 61 °F 95% 30.03 in - South 3.5 mph - -  
9:00 PM 62.1 °F 61.0 °F 96% 30.03 in - South 3.5 mph - 0.02 in   Unknown
10:00 PM 62.6 °F 61.5 °F 96% 30.01 in - South 5.8 mph - N/A   Unknown
11:00 PM 63.0 °F 62.1 °F 97% 29.99 in - SSE 9.2 mph 18.4 mph 0.03 in   Unknown